Regional Weather Roundup
Issued by NWS

Home | Current Version | Previous Version | Graphics & Text | Print | Product List | Glossary On
Versions: 1 2 3 4 5 6 7 8 9 10 11 12 13 14 15 16 17 18 19 20 21 22 23 24 25 26 27 28 29 30 31 32 33 34 35 36 37 38 39 40 41 42 43 44 45 46 47 48 49 50
000
ASUS45 KSLC 221510
RWRUT

UTAH REGIONAL WEATHER ROUNDUP
NATIONAL WEATHER SERVICE SALT LAKE CITY UT
800 AM MST MON DEC 22 2014

UTZ001>011-023>025-221600-

NORTHERN UTAH

CITY           SKY/WX    TMP DP  RH WIND       PRES   REMARKS
BRIGHAM CITY   CLOUDY    39  34  82 N6        30.01S WCI  35
DUGWAY         LGT RAIN  40  39  97 S3        30.02
HILL AFB       LGT RAIN  37  37 100 VRB7      29.99R FOG     WCI  32
LOGAN          CLOUDY    40  32  73 N6        29.97S
OGDEN          LGT RAIN  39  37  92 S7        29.99R WCI  34
PROVO AIRPORT  RAIN      36  32  87 VRB5      30.01F WCI  32
SALT LAKE CITY LGT RAIN  38  37  97 SE6       29.95F FOG     WCI  33
VERNAL         LGT RAIN  34  32  92 CALM      29.87S
WENDOVER       CLOUDY    41  36  81 NE6       30.02S
HEBER CITY     LGT SNOW  32  32 100 CALM      29.93S
WEST JORDAN    CLOUDY    34  34 100 CALM      30.00F

$$

UTZ012>022-026-027-221600-

SOUTHERN/CENTRAL UTAH

CITY           SKY/WX    TMP DP  RH WIND       PRES   REMARKS
BLANDING       PTCLDY    32  30  92 CALM      30.00R
BRYCE CANYON   CLOUDY    34  32  92 CALM      30.05F
CEDAR CITY     CLEAR     37  32  82 S8        30.06R WCI  31
DELTA          CLOUDY    40  40 100 S3        29.98F
MILFORD        CLEAR     30  27  88 S8        30.02S WCI  22
MOAB/CYNLANDS  PTCLDY    33  31  92 SW3       29.89F
PRICE          CLOUDY    36  32  85 NW5       29.89F WCI  32
ST GEORGE      CLOUDY    34  28  80 SW6       30.09S WCI  29
KANAB          CLEAR     30  30 100 N5        30.10R WCI  25

$$

REGIONAL REPORTS     COLORADO/ARIZONA

CITY           SKY/WX    TMP DP  RH WIND       PRES   REMARKS
CRAIG, CO        N/A    N/A N/A N/A MISG      29.84S
GRAND JUNCTION CLOUDY    33  32  96 CALM      29.86F
RIFLE          CLOUDY    34  31  88 W3        29.87R
MONTROSE       CLOUDY    34  31  88 S7        29.89R WCI  28
CORTEZ         CLOUDY    34  31  88 CALM      29.93S
PAGE, AZ       CLEAR     37  31  78 CALM      29.98S
GRAND CANYON   CLEAR     30  28  92 NE6       30.09R WCI  24
KINGMAN        CLEAR     35  32  88 CALM      30.09R
FLAGSTAFF      CLEAR     41  30  65 VRB5      30.07F

$$

REGIONAL REPORTS    NEVADA/IDAHO/WYOMING

CITY           SKY/WX    TMP DP  RH WIND       PRES   REMARKS
LAS VEGAS, NV  PTCLDY    47  37  68 CALM      30.04S
ELY            CLOUDY    45  35  68 NE10      30.13S
ELKO           CLOUDY    44  40  85 W13       30.10S
POCATELLO, ID  CLOUDY    35  35 100 W18       29.97F WCI  24
BURLEY         CLOUDY    37  35  92 W17G30    29.99F WCI  27
EVANSTON, WY   LGT SNOW  30  29  96 W13       29.91S FOG     WCI  20
ROCK SPRINGS   MOCLDY    28  22  78 W22G30    29.84S WCI  14
KEMMERER       LGT SNOW  28  27  93 W16       29.87F WCI  17

$$



USA.gov is the U.S. government's official web portal to all federal, state and local government web resources and services.